Location: Blachière
(44.7833°N, 6.5500°E)
Time: 02:09:10
(UTC+00:00)

Daily predictions for brighter satellites

Satellite Brightness Start Highest point End
(mag) Time Altitude Azimuth Time Altitude Azimuth Time Altitude Azimuth
Cosmos 2228 Rocket 3.0 00:05:20 78° ESE 00:05:23 78° E 00:09:53 10° N
Meteor 1-21 4.5 00:04:42 48° SE 00:05:55 59° E 00:11:32 10° NNE
Cosmos 2082 Rocket 2.3 00:07:01 55° SSE 00:07:58 64° ESE 00:13:39 10° NNE
Helios 1A Rocket 3.8 00:07:44 37° E 00:08:05 38° ENE 00:11:41 10° N
Cosmos 1833 Rocket 3.7 00:08:10 28° WSW 00:10:23 40° NW 00:15:40 10° NNE
Meteor 1-12 Rocket 4.2 00:04:28 10° NNW 00:10:23 83° W 00:11:47 55° S
BREEZE-M DEB (TANK) 3.0 00:13:11 77° W 00:13:26 86° SSW 00:21:32 10° ESE
Cosmos 724 4.4 00:12:02 43° WSW 00:13:55 68° NW 00:19:46 10° NNE
CZ-2D R/B 4.3 00:15:31 10° NE 00:18:52 16° E 00:21:24 12° ESE
DELTA 2 R/B (1) 4.1 00:26:16 41° SE 00:26:16 41° SE 00:30:26 10° E
USA 267 3.7 00:18:50 10° NE 00:25:14 60° NNW 00:30:21 17° WSW
ATLAS CENTAUR R/B 4.3 00:12:29 10° NW 00:25:50 64° SW 00:31:03 31° SSE
Cosmos 1455 3.6 00:27:56 10° NNE 00:30:55 26° ENE 00:31:18 25° E
Cosmos 1733 Rocket 3.0 00:27:37 10° NNW 00:31:54 67° W 00:31:54 67° W
Cosmos 1400 Rocket 3.3 00:32:16 49° WNW 00:32:16 49° WNW 00:36:01 10° N
Resurs 1-4 Rocket 3.9 00:29:42 10° NE 00:33:44 22° E 00:36:00 17° SE
Nimbus 7 Rocket 4.4 00:28:49 10° NNE 00:34:51 86° WNW 00:36:43 48° SSW
GP-B 4.2 00:30:58 10° NNW 00:34:52 31° W 00:35:02 31° W
H-2A R/B 3.7 00:34:33 10° NNW 00:38:05 24° WNW 00:38:59 22° W
Cosmos 381 Rocket 4.4 00:33:16 10° NNW 00:39:41 76° WSW 00:41:55 43° S
Cosmos 2278 4.4 00:36:32 10° NNW 00:42:08 51° ENE 00:46:48 15° SE
NOSS 3-4 (A) 3.9 00:36:58 10° NW 00:43:51 59° WSW 00:47:10 35° S
NOSS 3-4 (C) 3.9 00:37:04 10° NW 00:43:57 60° WSW 00:47:19 35° S
Cosmos 676 Rocket 3.9 00:42:47 55° SSW 00:44:00 86° ESE 00:49:21 10° NNE
Cosmos 1346 Rocket 2.7 00:41:39 10° NNW 00:45:17 70° WNW 00:45:17 70° WNW
SL-08 R/B 4.4 00:44:05 44° S 00:46:14 86° E 00:52:26 10° N
Cosmos 468 Rocket 3.9 00:43:18 10° NNW 00:48:36 73° WSW 00:49:48 52° S
Okean 2 3.2 00:49:49 71° SE 00:50:01 73° E 00:54:00 10° NNE
Cosmos 1954 Rocket 4.1 00:48:42 49° SW 00:50:03 70° WNW 00:55:22 10° NNE
Cosmos 1745 Rocket 4.3 00:48:37 33° SSE 00:51:20 59° E 00:57:30 10° NNE
CZ-2C R/B 4.0 00:47:46 11° SE 00:52:07 34° ENE 00:56:44 10° N
Meteor 1-4 Rocket 3.3 00:53:08 39° NE 00:53:08 39° NE 00:55:20 10° NNE
Cosmos 2333 Rocket 4.3 00:49:56 10° N 00:54:39 25° NE 00:59:21 10° ESE
Cosmos 1763 Rocket 4.0 00:52:56 10° NW 00:57:53 40° WSW 00:58:19 40° WSW
Cosmos 2322 Rocket 3.7 00:54:33 10° NNW 00:59:44 36° NE 01:04:55 10° ESE
Cosmos 1703 Rocket 3.7 00:58:54 52° SSE 00:59:49 68° E 01:04:14 10° NNE
Cosmos 1300 4.3 00:57:20 10° NW 00:59:22 22° WNW 00:59:22 22° WNW
USA 234 3.2 00:56:30 23° SSE 01:00:42 58° SW 01:07:11 10° NW
BREEZE-M R/B 4.1 00:59:28 34° SSE 01:00:58 41° SE 01:11:50 10° ENE
Cosmos 1862 Rocket 4.4 01:04:13 33° W 01:04:41 34° WNW 01:08:39 10° N
Cosmos 1953 2.1 01:01:04 10° N 01:04:59 88° W 01:05:20 73° S
SL-8 R/B 3.5 01:00:34 10° WNW 01:05:21 78° SSW 01:10:08 10° ESE
Cosmos 1697 Rocket 4.4 01:02:43 10° WNW 01:05:44 16° W 01:05:44 16° W
NPP 4.1 01:02:56 10° NNE 01:08:14 55° E 01:10:34 32° SSE
Cosmos 1242 Rocket 3.5 01:13:26 28° E 01:13:26 28° E 01:15:55 10° NNE
Cosmos 1980 Rocket 3.0 01:08:38 10° NW 01:13:34 31° WSW 01:14:01 30° WSW
Nadezhda 1 Rocket 4.0 01:08:29 10° N 01:14:55 85° W 01:18:17 30° S
Cosmos 540 Rocket 4.0 01:11:33 10° NW 01:16:18 38° WSW 01:16:52 36° WSW
Cosmos 1300 Rocket 4.2 01:13:54 10° N 01:18:08 50° ENE 01:20:25 24° SE
MOZ.5/SAFIR/RUBIN 5/SL-8 3.8 01:18:21 45° SSW 01:19:41 67° WSW 01:24:24 10° NNW
ADEOS II 3.2 01:16:11 10° NNE 01:21:00 36° E 01:24:12 19° SSE
Cosmos 1408 3.6 01:21:25 27° ESE 01:21:50 28° E 01:24:28 10° NNE
COSMOS 2406 3.9 01:19:32 28° WSW 01:22:07 44° WNW 01:27:38 10° NNE
Cosmos 2369 4.4 01:19:38 10° NW 01:24:41 33° WSW 01:25:30 31° WSW
Lacrosse 5 rocket 1.5 01:21:39 10° NW 01:25:45 69° NE 01:29:38 10° ESE
IDEFIX/ARIANE 42P 2.6 01:20:50 10° NNE 01:26:07 81° ESE 01:28:28 34° S
EXPRESS MD2 3.0 01:27:55 51° ESE 01:27:55 51° ESE 01:31:18 10° ENE
ALOS 4.2 01:25:04 10° NE 01:28:39 22° E 01:32:13 10° SE
Okean 1-7 3.8 01:30:04 33° WSW 01:30:54 36° WNW 01:34:55 10° N
Cosmos 1315 Rocket 3.3 01:39:37 38° WSW 01:40:22 42° WNW 01:44:07 10° N
ATLAS 2AS CENTAUR R/B 4.2 01:34:35 10° NNW 01:40:57 38° NE 01:47:05 10° ESE
SJ 16-02 1.9 01:39:50 27° SSE 01:41:48 48° ESE 01:45:58 10° NNE
SL-16 R/B 2.1 01:38:40 10° NNW 01:44:20 72° WSW 01:49:03 15° SSE
CZ-2C R/B 3.5 01:38:50 10° NNE 01:44:39 67° ESE 01:48:26 22° S
Cosmos 1850 Rocket 4.1 01:46:14 31° SW 01:48:45 68° WNW 01:54:01 10° NNE
Cosmos 2082 Rocket 3.8 01:48:50 13° W 01:52:32 24° NW 01:57:07 10° N
Cosmos 1709 Rocket 4.1 01:49:42 26° SSW 01:53:25 70° W 01:59:48 10° N
Cosmos 1741 Rocket 4.1 01:51:18 30° SW 01:53:52 65° WNW 01:59:07 10° NNE
SL-16 R/B 2.9 01:49:12 10° SSE 01:55:23 67° ENE 02:01:37 10° N
Cosmos 2219 Rocket 3.6 01:52:07 10° NNW 01:57:26 40° NE 02:02:45 10° SE
Cosmos 1782 Rocket 3.8 01:53:45 10° NNW 01:57:58 48° W 01:59:39 31° SSW
Cosmos 2181 Rocket 4.3 01:52:15 10° N 01:58:39 71° E 02:04:53 10° SSE
CZ-2D R/B 2.2 01:53:57 10° N 01:59:26 73° WNW 02:02:42 25° SSW
Cosmos 1703 3.2 02:00:01 27° S 02:01:56 72° E 02:05:40 10° NNE
Meteor 1-28 Rocket 3.3 01:59:46 16° SSE 02:02:32 68° ENE 02:06:06 10° N
Cosmos 968 Rocket 3.5 02:02:10 27° SSW 02:04:59 72° WNW 02:10:08 10° NNE
Cosmos 1455 3.7 02:02:49 10° NW 02:05:04 18° W 02:05:04 18° W
AQUA 3.9 02:00:54 10° NNE 02:05:38 73° ESE 02:08:56 20° S
Cosmos 2360 Rocket 2.2 02:00:43 10° NNW 02:06:26 85° ENE 02:12:07 10° SSE
Genesis I 2.8 02:05:37 35° SW 02:06:58 84° NW 02:10:32 10° NE
Meteor 1-24 Rocket 4.0 02:02:47 16° S 02:07:39 74° E 02:13:39 10° NNE
CRYOSAT 2 4.4 02:02:46 10° N 02:07:39 72° W 02:10:48 22° SSW
RESURS DK-1 2.9 02:06:27 10° NNW 02:10:29 58° ENE 02:14:29 10° SE
DELTA 2 R/B (1) 3.8 02:06:59 16° WSW 02:11:05 45° S 02:16:21 10° ESE
MSX 4.2 02:06:47 10° N 02:12:20 52° WNW 02:16:00 21° SW
Resurs 1-4 Rocket 2.4 02:08:44 10° N 02:13:49 51° WNW 02:17:04 21° SW
SAR-Lupe-4 4.0 02:12:35 10° NNE 02:16:07 58° E 02:18:38 18° S
FENGYUN 3A 3.7 02:17:57 10° N 02:23:19 72° WNW 02:27:27 17° SSW
IRAS Rocket 4.3 02:18:25 10° NNE 02:23:57 76° ESE 02:28:54 13° S
OAO 3 Rocket 4.4 02:24:07 21° SW 02:25:31 24° S 02:29:24 10° SE
CZ-2C R/B 3.3 02:29:15 18° SSW 02:32:21 33° W 02:37:00 10° NNW
Cosmos 2221 Rocket 3.9 02:28:25 10° S 02:32:55 67° E 02:37:26 10° NNE
Cosmos 1825 2.8 02:33:25 10° SSE 02:36:42 47° E 02:40:00 10° NNE
SAR-Lupe-1 4.0 02:34:58 10° N 02:38:34 78° WNW 02:41:25 15° SSW
Cosmos 2333 Rocket 2.3 02:33:42 10° NNW 02:39:20 60° WSW 02:44:58 10° S
Sich 1 Rocket 3.6 02:34:49 10° N 02:39:21 87° E 02:43:48 10° S
Cosmos 2098 Rocket 3.9 02:34:39 10° NNW 02:39:46 54° W 02:45:43 10° SSW
SL-27 R/B 3.2 02:40:26 19° WSW 02:41:44 27° WNW 02:44:13 10° N
Cosmos 2151 Rocket 3.5 02:37:22 10° N 02:41:52 81° W 02:46:18 10° S
Cosmos 1892 2.7 02:39:19 10° S 02:42:47 69° E 02:46:18 10° NNE
Cosmos 1814 Rocket 4.4 02:38:06 10° NNW 02:43:02 43° WSW 02:47:58 10° S
Cosmos 2322 Rocket 2.7 02:38:36 10° NW 02:43:47 38° WSW 02:48:58 10° S
YAOGAN 6 4.5 02:41:14 10° NE 02:44:00 24° E 02:46:44 10° SSE
Cosmos 1025 Rocket 4.4 02:40:45 10° SSE 02:44:47 38° E 02:48:51 10° NNE
Cosmos 1242 Rocket 4.4 02:44:56 10° W 02:45:48 11° WNW 02:46:40 10° NW
Meteor 2-5 Rocket 4.1 02:43:00 13° SSW 02:48:05 54° WNW 02:53:57 10° N
SL-4 R/B 2.5 02:47:25 15° SW 02:50:52 56° SE 02:55:14 10° ENE
Cosmos 2297 Rocket 4.4 02:47:55 10° SE 02:51:57 20° E 02:55:58 10° NE
Cosmos 1328 4.5 02:48:55 10° S 02:52:36 51° E 02:56:19 10° NNE
Okean 2 Rocket 3.1 02:50:22 10° NNW 02:54:44 64° W 02:59:05 10° S
Cosmos 1408 4.4 02:53:36 10° W 02:54:48 12° WNW 02:56:05 10° NW
Cosmos 2074 Rocket 4.1 02:49:05 10° SSW 02:55:16 67° W 03:01:28 10° N
Cosmos 1674 Rocket 3.7 02:52:27 10° SSW 02:56:51 63° W 03:01:16 10° N
ADEOS II 3.1 02:55:55 10° N 03:00:32 32° WNW 03:05:05 10° SW
Cosmos 1570 Rocket 4.0 02:55:40 10° NNW 03:00:58 72° WSW 03:06:16 10° S
Cosmos 1486 Rocket 4.5 02:56:17 10° S 03:01:24 61° ESE 03:06:32 10° NNE
Tiangong -0.4 03:00:18 11° SSW 03:02:24 20° SSE 03:04:45 10° ESE
Lacrosse 5 rocket 2.7 03:01:01 10° W 03:03:37 17° WSW 03:06:07 10° SSW
Cosmos 2208 Rocket 4.0 02:58:49 10° NNW 03:04:09 88° WSW 03:09:22 10° SSE
IDEFIX/ARIANE 42P 4.5 03:01:52 10° NNW 03:04:59 16° WNW 03:08:04 10° W
ALOS 2.8 03:01:40 10° N 03:06:01 42° WNW 03:10:21 10° SW
METEOR-M 4.2 03:04:31 10° NNE 03:09:54 86° WNW 03:15:14 10° SSW
CZ-4C R/B 4.5 03:10:23 10° ESE 03:11:34 11° ESE 03:12:47 10° E
Cosmos 2184 Rocket 4.3 03:07:30 10° SSW 03:13:31 51° WNW 03:19:39 10° N
Cosmos 405 Rocket 3.0 03:10:33 10° NNW 03:13:57 41° W 03:17:23 10° SSW
Cosmos 1378 Rocket 4.3 03:10:14 10° SW 03:14:08 34° WNW 03:18:06 10° N
IRS-1D 4.0 03:11:52 10° NNE 03:17:12 67° ESE 03:22:27 10° S
CZ-2C R/B 2.4 03:13:48 10° NNE 03:18:36 83° ESE 03:23:14 10° SSW
Envisat 3.1 03:14:00 10° N 03:19:04 70° WNW 03:24:05 10° SSW
ATLAS CENTAUR R/B 1.7 03:16:59 10° SSW 03:20:20 47° ESE 03:23:46 10° NE
SJ 16-02 3.1 03:17:24 10° WSW 03:20:25 18° WNW 03:23:27 10° NNW
Okean 1 Rocket 3.2 03:17:03 10° NNW 03:21:16 52° W 03:25:26 10° S
Nadezhda 3 Rocket 4.2 03:18:09 10° NNW 03:24:22 57° W 03:30:31 10° SSW
Cosmos 2154 Rocket 4.3 03:18:45 10° SSW 03:24:45 51° WNW 03:30:48 10° N
Cosmos 158 Rocket 4.1 03:20:28 10° NNW 03:25:50 67° WSW 03:31:06 10° S
